CW2157 Weather Reports


Display with metric or nautical units.
time (UTC)temp
F
wind
direction
speed
MPH
gust
MPH
rain 1hr
in
rain 24hr
in
rain mn
in
humidity
%
barometer
mb
20260831163205 87 61 3.0 7.0 0.00 0.00 0.00 71 1017.4
20260831162204 87 48 3.0 6.0 0.00 0.00 0.00 74 1017.5
20260831161704 86 54 4.0 7.0 0.00 0.00 0.00 74 1017.5
20260831160704 86 46 3.0 8.0 0.00 0.00 0.00 75 1017.6
20260831160204 86 106 5.0 7.0 0.00 0.00 0.00 76 1017.6
20260831155704 85 79 5.0 8.0 0.00 0.00 0.00 75 1017.6
20260831155205 85 73 2.0 6.0 0.00 0.00 0.00 76 1017.7
20260831154204 85 28 4.0 10.0 0.00 0.00 0.00 77 1017.7
20260831153704 85 84 3.0 9.0 0.00 0.00 0.00 77 1017.8
20260831153204 85 53 3.0 9.0 0.00 0.00 0.00 76 1017.7
20260831152204 84 62 6.0 10.0 0.00 0.00 0.00 78 1017.6
20260831151704 84 67 7.0 10.0 0.00 0.00 0.00 79 1017.5
20260831151204 85 82 6.0 10.0 0.00 0.00 0.00 78 1017.5
20260831150704 85 57 6.0 10.0 0.00 0.00 0.00 78 1017.5
20260831150205 84 61 6.0 12.0 0.00 0.00 0.00 80 1017.5
20260831145704 84 108 6.0 12.0 0.00 0.00 0.00 79 1017.6
20260831145204 84 85 8.0 13.0 0.00 0.00 0.00 80 1017.6
20260831144204 83 89 7.0 12.0 0.00 0.00 0.00 80 1017.6
20260831143705 83 75 6.0 10.0 0.00 0.00 0.00 80 1017.6
20260831143205 83 71 7.0 10.0 0.00 0.00 0.00 81 1017.7
20260831142204 83 71 6.0 9.0 0.00 0.00 0.00 82 1017.6
20260831141704 82 61 5.0 10.0 0.00 0.00 0.00 82 1017.6
20260831141204 82 70 6.0 9.0 0.00 0.00 0.00 82 1017.6
20260831140704 82 85 7.0 10.0 0.00 0.00 0.00 81 1017.7
20260831135704 81 59 5.0 10.0 0.00 0.00 0.00 82 1017.7
20260831135204 81 78 6.0 12.0 0.00 0.00 0.00 84 1017.5
20260831134704 81 61 6.0 9.0 0.00 0.00 0.00 85 1017.5
20260831133704 80 126 5.0 8.0 0.00 0.00 0.00 87 1017.5
20260831133204 80 113 4.0 7.0 0.00 0.00 0.00 88 1017.5
20260831132704 79 69 5.0 6.0 0.00 0.00 0.00 88 1017.6
20260831132204 79 60 4.0 7.0 0.00 0.00 0.00 88 1017.6
20260831131204 79 59 5.0 8.0 0.00 0.00 0.00 90 1017.6
20260831130704 79 73 5.0 6.0 0.00 0.00 0.00 90 1017.6
20260831130204 79 81 4.0 7.0 0.00 0.00 0.00 92 1017.6
20260831125204 78 58 5.0 6.0 0.00 0.00 0.00 92 1017.7
20260831124704 78 58 3.0 8.0 0.00 0.00 0.00 93 1017.6
20260831124204 78 58 7.0 12.0 0.00 0.00 0.00 94 1017.6
20260831123704 78 66 3.0 8.0 0.00 0.00 0.00 94 1017.6
20260831123204 78 46 4.0 7.0 0.00 0.00 0.00 94 1017.7
20260831122704 78 18 4.0 9.0 0.00 0.00 0.00 94 1017.6
20260831122204 78 62 2.0 3.0 0.00 0.00 0.00 95 1017.5
20260831121704 78 65 2.0 3.0 0.00 0.00 0.00 95 1017.6
20260831121204 77 89 2.0 3.0 0.00 0.00 0.00 95 1017.5
20260831120704 77 56 2.0 3.0 0.00 0.00 0.00 95 1017.4
20260831120204 76 15 1.0 3.0 0.00 0.00 0.00 95 1017.5
20260831115704 76 15 2.0 3.0 0.00 0.00 0.00 95 1017.4
20260831114704 76 65 1.0 2.0 0.00 0.00 0.00 94 1017.2
20260831114204 75 65 0.0 1.0 0.00 0.00 0.00 94 1017.1
20260831113203 75 65 2.0 3.0 0.00 0.00 0.00 94 1017.0
20260831112204 75 128 0.0 0.0 0.00 0.00 0.00 94 1016.9
20260831111704 74 128 1.0 2.0 0.00 0.00 0.00 94 1017.0
20260831110704 74 32 0.0 2.0 0.00 0.00 0.00 93 1016.8
20260831110204 74 32 0.0 0.0 0.00 0.00 0.00 93 1016.9
20260831105704 74 32 0.0 0.0 0.00 0.00 0.00 93 1016.7
20260831105204 74 32 0.0 1.0 0.00 0.00 0.00 93 1016.6
20260831104704 74 32 1.0 2.0 0.00 0.00 0.00 93 1016.6
20260831104204 74 32 1.0 2.0 0.00 0.00 0.00 93 1016.5
20260831103703 74 32 1.0 1.0 0.00 0.00 0.00 93 1016.5
20260831103204 74 32 1.0 2.0 0.00 0.00 0.00 93 1016.4
20260831102204 74 42 0.0 2.0 0.00 0.00 0.00 93 1016.3
20260831101204 75 42 1.0 2.0 0.00 0.00 0.00 93 1016.3
20260831100704 75 42 2.0 3.0 0.00 0.00 0.00 93 1016.3
20260831100204 75 352 0.0 1.0 0.00 0.00 0.00 93 1016.3
20260831095704 75 352 1.0 2.0 0.00 0.00 0.00 93 1016.2
20260831095204 75 352 0.0 0.0 0.00 0.00 0.00 93 1016.2
20260831094705 75 352 0.0 1.0 0.00 0.00 0.00 93 1016.2
20260831094205 75 352 0.0 0.0 0.00 0.00 0.00 93 1016.3
20260831093705 74 352 0.0 0.0 0.00 0.00 0.00 93 1016.4
20260831092705 74 352 0.0 0.0 0.00 0.00 0.00 93 1016.4
20260831092206 74 352 1.0 3.0 0.00 0.00 0.00 93 1016.5
20260831091705 75 354 2.0 3.0 0.00 0.00 0.00 93 1016.2
20260831091205 75 44 0.0 1.0 0.00 0.00 0.00 93 1016.1
20260831090705 75 15 0.0 1.0 0.00 0.00 0.00 93 1016.2
20260831090205 75 15 0.0 0.0 0.00 0.00 0.00 93 1016.3
20260831084705 75 15 0.0 2.0 0.00 0.00 0.00 92 1016.5
20260831084205 75 63 0.0 0.0 0.00 0.00 0.00 92 1016.3
20260831083706 75 63 0.0 0.0 0.00 0.00 0.00 92 1016.2
20260831083206 75 63 0.0 0.0 0.00 0.00 0.00 92 1016.2
20260831082705 75 63 0.0 0.0 0.00 0.00 0.00 92 1016.3
20260831082205 75 63 0.0 0.0 0.00 0.00 0.00 92 1016.4
20260831081705 75 63 0.0 0.0 0.00 0.00 0.00 92 1016.5
20260831081205 75 63 0.0 0.0 0.00 0.00 0.00 92 1016.5
20260831080705 75 63 0.0 0.0 0.00 0.00 0.00 92 1016.4
20260831080205 75 63 0.0 0.0 0.00 0.00 0.00 92 1016.5
20260831075705 75 63 0.0 0.0 0.00 0.00 0.00 92 1016.5
20260831075205 75 63 0.0 0.0 0.00 0.00 0.00 92 1016.6
20260831074705 75 63 0.0 0.0 0.00 0.00 0.00 92 1016.6
20260831074205 75 63 0.0 1.0 0.00 0.00 0.00 92 1016.6
20260831073705 75 63 0.0 1.0 0.00 0.00 0.00 92 1016.5
20260831073205 75 63 1.0 1.0 0.00 0.00 0.00 92 1016.6
20260831072705 75 63 0.0 1.0 0.00 0.00 0.00 92 1016.5
20260831072205 75 306 0.0 0.0 0.00 0.00 0.00 92 1016.5
20260831071705 75 306 0.0 0.0 0.00 0.00 0.00 92 1016.4
20260831071205 76 306 0.0 1.0 0.00 0.00 0.00 92 1016.4
20260831070705 75 306 0.0 0.0 0.00 0.00 0.00 92 1016.5
20260831070205 76 306 0.0 0.0 0.00 0.00 0.00 91 1016.6
20260831064705 76 306 0.0 0.0 0.00 0.00 0.00 92 1016.6
20260831064205 76 306 0.0 0.0 0.00 0.00 0.00 91 1016.6
20260831063205 76 306 0.0 0.0 0.00 0.00 0.00 91 1016.6
20260831061705 76 268 0.0 0.0 0.00 0.00 0.00 91 1016.7
20260831061205 76 262 0.0 1.0 0.00 0.00 0.00 91 1016.7
20260831060706 76 294 0.0 1.0 0.00 0.00 0.00 91 1016.7
20260831060205 76 260 0.0 1.0 0.00 0.00 0.00 91 1016.7
20260831055705 76 296 0.0 1.0 0.00 0.00 0.00 91 1016.7
20260831055205 76 297 0.0 1.0 0.00 0.00 0.00 91 1016.7
20260831054205 76 268 2.0 6.0 0.00 0.00 0.00 90 1016.7
20260831053705 76 242 5.0 7.0 0.00 0.00 0.00 91 1016.7
20260831053205 76 232 6.0 8.0 0.00 0.00 0.00 91 1016.6
20260831052705 76 233 6.0 9.0 0.00 0.00 0.00 90 1016.6
20260831052205 76 231 6.0 8.0 0.00 0.00 0.00 90 1016.7
20260831051205 76 233 6.0 9.0 0.00 0.00 0.00 90 1016.6
20260831050705 77 226 6.0 8.0 0.00 0.00 0.00 90 1016.7
20260831050205 77 235 6.0 7.0 0.00 0.00 0.00 89 1016.7
20260831045705 77 230 6.0 8.0 0.00 0.00 0.00 89 1016.8
20260831045206 77 229 6.0 8.0 0.00 0.00 0.00 89 1016.8
20260831044705 77 227 7.0 8.0 0.00 0.00 0.00 89 1016.9
20260831043705 77 233 7.0 9.0 0.00 0.00 0.00 89 1016.9
20260831041705 78 229 7.0 10.0 0.00 0.00 0.00 89 1017.1
20260831041205 78 234 6.0 9.0 0.00 0.00 0.00 89 1016.9
20260831040705 78 237 7.0 10.0 0.00 0.00 0.00 89 1017.0
20260831035705 78 228 6.0 10.0 0.00 0.00 0.00 88 1017.0
20260831035205 78 226 7.0 10.0 0.00 0.00 0.00 88 1017.0
20260831034705 79 340 9.0 12.0 0.00 0.00 0.00 88 1017.1
20260831034205 79 3 7.0 12.0 0.00 0.00 0.00 88 1017.1
20260831033705 79 201 7.0 12.0 0.00 0.00 0.00 88 1017.1
20260831033205 79 226 7.0 14.0 0.00 0.00 0.00 88 1017.1
20260831032705 79 243 7.0 10.0 0.00 0.00 0.00 87 1017.1
20260831032205 79 227 6.0 10.0 0.00 0.00 0.00 87 1017.2
20260831031705 79 235 9.0 12.0 0.00 0.00 0.00 87 1017.2
20260831031204 79 220 9.0 13.0 0.00 0.00 0.00 86 1017.2
20260831030704 80 211 10.0 13.0 0.00 0.00 0.00 86 1017.2
20260831030205 80 218 10.0 14.0 0.00 0.00 0.00 86 1017.2
20260831025705 80 236 8.0 13.0 0.00 0.00 0.00 86 1017.3
20260831025205 80 213 10.0 14.0 0.00 0.00 0.00 86 1017.1
20260831024705 80 224 8.0 13.0 0.00 0.00 0.00 86 1017.0
20260831024205 80 41 8.0 12.0 0.00 0.00 0.00 86 1017.1
20260831023705 80 301 7.0 9.0 0.00 0.00 0.00 86 1017.2
20260831022705 80 346 6.0 10.0 0.00 0.00 0.00 86 1017.5
20260831022205 81 184 6.0 10.0 0.00 0.00 0.00 86 1017.5
20260831021705 81 215 6.0 12.0 0.00 0.00 0.00 85 1017.5
20260831021205 81 177 7.0 12.0 0.00 0.00 0.00 85 1017.5
20260831020705 81 332 6.0 12.0 0.00 0.00 0.00 85 1017.5
20260831015705 81 226 8.0 12.0 0.00 0.00 0.00 84 1017.5
20260831014705 81 199 9.0 12.0 0.00 0.00 0.00 83 1017.3
20260831014205 81 212 9.0 15.0 0.00 0.00 0.00 82 1017.5
20260831013705 81 186 10.0 15.0 0.00 0.00 0.00 82 1017.3
20260831013205 81 209 10.0 14.0 0.00 0.00 0.00 81 1017.3
20260831012705 81 199 9.0 13.0 0.00 0.00 0.00 81 1017.3
20260831012205 81 191 10.0 16.0 0.00 0.00 0.00 81 1017.4
20260831011705 81 195 7.0 12.0 0.00 0.00 0.00 80 1017.4
20260831011205 81 191 9.0 16.0 0.00 0.00 0.00 79 1017.4
20260831010705 81 184 8.0 12.0 0.00 0.00 0.00 79 1017.3
20260831005705 81 186 8.0 12.0 0.00 0.00 0.00 79 1017.3
20260831005206 81 178 7.0 13.0 0.00 0.00 0.00 79 1017.3
20260831004705 81 211 10.0 14.0 0.00 0.00 0.00 78 1017.3
20260831004205 81 203 8.0 12.0 0.00 0.00 0.00 78 1017.2
20260831003705 81 201 7.0 12.0 0.00 0.00 0.00 78 1017.2
20260831003205 81 202 8.0 12.0 0.00 0.00 0.00 77 1017.2
20260831002704 81 173 6.0 13.0 0.00 0.00 0.00 77 1017.3
20260831002205 81 223 7.0 12.0 0.00 0.00 0.00 77 1017.3
20260831001205 81 200 9.0 12.0 0.00 0.00 0.00 76 1017.1
20260831000704 81 190 7.0 12.0 0.00 0.00 0.00 77 1017.1
20260831000205 82 196 8.0 12.0 0.00 0.00 0.00 77 1017.1
20260830235704 82 193 6.0 9.0 0.00 0.00 0.00 77 1017.0
20260830234705 82 189 6.0 10.0 0.00 0.00 0.00 76 1017.1
20260830234204 82 196 6.0 10.0 0.00 0.00 0.00 76 1017.0
20260830233204 82 190 6.0 14.0 0.00 0.00 0.00 76 1017.1
20260830232705 82 192 9.0 13.0 0.00 0.00 0.00 76 1017.1
20260830232205 83 290 5.0 9.0 0.00 0.00 0.00 76 1017.1
20260830231204 83 199 6.0 10.0 0.00 0.00 0.00 77 1017.2
20260830230705 83 235 7.0 10.0 0.00 0.00 0.00 77 1017.2
20260830230205 83 190 6.0 9.0 0.00 0.00 0.00 76 1017.1
20260830225705 83 194 6.0 8.0 0.00 0.00 0.00 76 1017.1
20260830225204 83 200 6.0 10.0 0.00 0.00 0.00 76 1017.1
20260830224705 83 209 7.0 12.0 0.00 0.00 0.00 76 1017.0
20260830224205 83 198 6.0 10.0 0.00 0.00 0.00 76 1016.9
20260830223705 83 232 5.0 12.0 0.00 0.00 0.00 75 1016.9
20260830223205 83 211 7.0 12.0 0.00 0.00 0.00 75 1017.1
20260830222205 84 205 6.0 12.0 0.00 0.00 0.00 75 1017.1
20260830221704 84 6 8.0 12.0 0.00 0.00 0.00 75 1017.1
20260830221205 84 337 7.0 12.0 0.00 0.00 0.00 73 1017.2
20260830220705 84 224 8.0 12.0 0.00 0.00 0.00 73 1017.2
20260830220204 84 315 9.0 12.0 0.00 0.00 0.00 72 1017.1
20260830215704 84 184 10.0 14.0 0.00 0.00 0.00 72 1017.0
20260830215204 85 325 8.0 10.0 0.00 0.00 0.00 71 1017.1
20260830214705 85 335 8.0 15.0 0.00 0.00 0.00 70 1016.9
20260830214205 85 3 8.0 13.0 0.00 0.00 0.00 71 1016.9
20260830213705 85 179 6.0 10.0 0.00 0.00 0.00 70 1016.9
20260830213205 86 179 8.0 12.0 0.00 0.00 0.00 70 1016.9
20260830212705 86 225 6.0 10.0 0.00 0.00 0.00 68 1016.9
20260830211705 87 172 7.0 14.0 0.00 0.00 0.00 67 1016.8
20260830210705 87 351 10.0 14.0 0.00 0.00 0.00 64 1016.8
20260830210205 88 228 9.0 13.0 0.00 0.00 0.00 67 1016.8
20260830205204 88 219 9.0 12.0 0.00 0.00 0.00 67 1016.9
20260830204705 87 225 10.0 13.0 0.00 0.00 0.00 67 1016.9
20260830204205 87 215 7.0 9.0 0.00 0.00 0.00 69 1017.0
20260830203705 87 209 6.0 12.0 0.00 0.00 0.00 68 1016.9
20260830203205 87 186 9.0 14.0 0.00 0.00 0.00 68 1017.0
20260830202705 87 203 8.0 13.0 0.00 0.00 0.00 68 1017.0
20260830202204 87 189 6.0 16.0 0.00 0.00 0.00 68 1017.1
20260830201704 87 203 7.0 14.0 0.00 0.00 0.00 66 1017.1
20260830201205 87 181 8.0 14.0 0.00 0.00 0.00 68 1017.1
20260830200705 87 188 7.0 14.0 0.00 0.00 0.00 68 1017.2
20260830200205 87 205 8.0 12.0 0.00 0.00 0.00 68 1017.2
20260830195705 87 198 7.0 12.0 0.00 0.00 0.00 68 1017.2
20260830194704 87 195 6.0 12.0 0.00 0.00 0.00 68 1017.5
20260830194205 87 9 9.0 15.0 0.00 0.00 0.00 68 1017.5
20260830193705 87 173 10.0 16.0 0.00 0.00 0.00 69 1017.5
20260830193205 86 307 8.0 13.0 0.00 0.00 0.00 68 1017.5
20260830192705 86 233 7.0 12.0 0.00 0.00 0.00 69 1017.6
20260830191704 86 163 10.0 14.0 0.00 0.00 0.00 69 1017.8
20260830191205 86 183 8.0 15.0 0.00 0.00 0.00 70 1018.0
20260830190705 86 188 9.0 13.0 0.00 0.00 0.00 68 1018.1
20260830190205 87 225 9.0 12.0 0.00 0.00 0.00 68 1018.3
20260830185704 87 221 9.0 13.0 0.00 0.00 0.00 70 1018.3
20260830185205 87 221 6.0 10.0 0.00 0.00 0.00 68 1018.2
20260830184705 86 183 5.0 12.0 0.00 0.00 0.00 73 1018.2
20260830184205 86 191 9.0 13.0 0.00 0.00 0.00 68 1018.5
20260830183705 86 193 7.0 13.0 0.00 0.00 0.00 69 1018.7
20260830183204 86 193 8.0 14.0 0.00 0.00 0.00 68 1018.8
20260830182705 86 196 7.0 12.0 0.00 0.00 0.00 69 1018.8
20260830182204 87 215 9.0 12.0 0.00 0.00 0.00 68 1018.8
20260830181705 87 188 9.0 16.0 0.00 0.00 0.00 68 1018.8
20260830181205 87 215 6.0 10.0 0.00 0.00 0.00 69 1018.8
20260830180705 87 203 8.0 13.0 0.00 0.00 0.00 65 1018.9
20260830175705 87 217 7.0 12.0 0.00 0.00 0.00 68 1019.0
20260830175205 87 242 8.0 14.0 0.00 0.00 0.00 65 1019.0
20260830174705 87 220 12.0 15.0 0.00 0.00 0.00 70 1019.1
20260830174205 87 218 11.0 16.0 0.00 0.00 0.00 67 1019.2
20260830173705 86 212 10.0 17.0 0.00 0.00 0.00 68 1019.2
20260830173204 86 222 11.0 18.0 0.00 0.00 0.00 70 1019.3
20260830172705 86 168 12.0 16.0 0.00 0.00 0.00 68 1019.5
20260830172205 86 216 12.0 17.0 0.00 0.00 0.00 69 1019.5
20260830171705 86 204 10.0 15.0 0.00 0.00 0.00 69 1019.6
20260830171204 86 218 11.0 15.0 0.00 0.00 0.00 69 1019.7
20260830170204 86 179 10.0 14.0 0.00 0.00 0.00 69 1019.8
20260830165705 86 202 10.0 14.0 0.00 0.00 0.00 68 1019.9
20260830164705 86 228 12.0 16.0 0.00 0.00 0.00 71 1019.9
20260830164205 86 237 10.0 15.0 0.00 0.00 0.00 68 1020.0
20260830163704 86 203 10.0 15.0 0.00 0.00 0.00 69 1020.0